Location: Pianadetto
(44.4000°N, 10.1000°E)
Time: 01:45:41
(UTC+00:00)

Cosmos 1867 - Pass Details

Date: 26 May 2022
Orbit: 775 x 801 km, 65.0° (Epoch: 26 June)

Event Time Altitude Azimuth Distance (km) Brightness Sun altitude
Exits shadow 00:05:01 38° 254° (WSW) 1,212 4.3 -23.6°
Maximum altitude 00:06:51 55° 310° (NW) 959 4.0 -23.5°
Drops below altitude 10° 00:12:14 10° 28° (NNE) 2,382 7.1 -23.3°
Sets 00:14:44 0° 33° (NNE) 3,317 8.0 -23.2°
